Theta_e
299 298 299 300 305 302 304 304 305 305 303 303 302 303 304 305 303 302 304 305 306 307 311 309 310 311 312 313 313 312 312 312 309 306 302 301 302 302 303 303 303 303 304 303
297 298 298 298 300 302 303 304 303 301 301 301 301 301 302 301 302 303 304 304 304 306 307 307 308 308 309 312 313 312 312 311 310 307 304 302 302 302 303 303 302 303 303 303
298 298 296 299 299 301 301 303 303 303 300 298 298 301 302 300 300 302 302 303 303 304 304 304 305 306 307 309 314 313 312 312 311 309 305 302 302 302 302 302 302 302 303 303
297 296 296 297 298 299 301 298 301 301 301 299 297 299 301 302 303 300 301 303 305 305 305 305 305 305 306 307 309 314 312 312 311 309 307 304 302 302 302 303 303 302 303 303
299 295 296 297 298 298 299 295 297 298 297 298 298 298 300 301 301 301 301 302 303 304 305 306 305 306 307 305 306 309 313 311 311 309 308 305 303 302 303 303 302 302 302 303
297 296 296 296 296 296 296 298 298 296 296 297 297 298 304 301 300 301 303 305 306 306 307 308 307 304 304 304 304 305 309 311 310 309 308 305 304 303 302 303 302 302 302 302
297 297 296 296 297 297 298 298 299 297 296 301 296 296 303 301 300 299 300 300 305 306 306 307 307 306 305 304 303 303 305 309 309 309 308 306 305 303 303 302 303 302 301 302
299 299 296 295 298 299 298 298 300 299 299 300 296 299 301 298 298 300 300 303 305 305 306 306 306 306 305 304 303 302 303 305 307 308 307 306 305 304 303 302 302 302 302 302
296 298 295 296 296 298 298 299 298 299 292 300 301 300 300 301 301 300 300 303 304 304 304 304 305 305 305 304 303 302 302 303 305 307 307 306 305 304 303 303 302 302 302 301
298 299 296 295 295 295 297 298 299 297 297 298 300 300 302 303 303 301 300 298 301 302 302 303 303 303 302 301 301 300 301 302 304 305 306 305 305 304 303 303 302 302 302 301
297 302 296 295 295 297 297 298 297 298 300 302 300 301 297 301 301 299 297 297 298 299 299 300 301 302 302 301 300 300 300 300 302 303 305 304 304 304 303 303 302 302 301 301
296 300 299 294 294 293 295 298 298 300 298 298 300 301 299 299 298 297 295 296 297 297 298 298 298 299 299 300 299 299 300 300 301 302 303 304 304 303 303 303 303 302 302 301
299 301 294 303 298 293 293 295 298 298 299 299 301 301 297 297 295 294 295 295 295 296 297 299 299 299 299 299 298 299 299 299 300 300 301 302 303 303 303 303 303 302 302 301
297 303 302 305 303 294 294 294 297 300 302 303 302 302 299 298 296 294 294 294 294 294 293 294 296 297 299 300 299 298 299 299 299 300 300 301 302 303 303 303 302 302 302 301
293 297 305 305 302 297 295 294 296 298 301 302 305 301 299 297 296 293 292 292 293 294 295 294 293 294 297 298 300 300 299 299 300 300 300 301 301 301 302 302 302 302 301 301
292 295 298 302 304 307 308 304 296 298 298 300 300 300 298 295 292 291 290 290 289 289 291 293 294 295 295 295 296 298 300 301 301 300 300 300 301 301 302 302 301 301 301 301
291 295 294 297 299 303 306 307 297 300 300 301 301 301 297 296 292 290 289 288 288 287 288 290 292 292 294 295 295 296 297 299 300 302 301 301 300 300 301 301 302 302 302 302
292 293 295 296 293 298 303 292 295 303 296 294 298 292 293 291 289 288 287 287 286 285 285 285 288 291 292 294 295 295 295 297 298 300 301 301 301 301 301 300 300 301 302 302
293 293 296 296 295 297 297 291 290 293 291 290 291 290 290 290 290 288 286 285 284 284 283 283 283 284 288 293 294 295 295 296 296 297 298 299 300 301 301 301 301 300 300 301
291 293 293 292 295 296 291 290 291 292 290 290 289 289 289 291 294 289 285 284 284 283 283 284 284 285 286 286 289 292 294 295 295 295 296 296 297 299 300 300 300 299 298 299
283 285 289 289 291 292 290 290 290 293 290 288 287 286 286 287 286 284 283 283 282 282 282 283 283 284 284 285 286 287 289 293 294 295 295 296 295 296 297 298 299 298 298 297
287 285 284 286 291 291 289 290 290 290 289 287 285 283 283 283 283 282 282 281 281 281 281 282 282 282 281 281 283 285 287 288 290 293 296 296 296 295 295 297 297 297 297 297
283 285 286 288 289 289 288 289 286 288 287 283 282 281 280 280 280 279 279 279 279 279 279 280 280 281 281 281 281 282 283 285 288 289 292 294 296 295 294 295 296 296 295 294
282 284 289 288 284 286 285 283 283 283 281 279 278 278 277 277 277 277 278 278 278 278 278 278 279 279 280 280 280 280 281 282 283 286 287 291 294 296 294 293 293 293 293 293
285 283 282 286 288 285 281 280 280 279 279 278 278 276 275 275 275 275 275 276 276 276 277 277 277 278 279 279 279 279 279 280 282 283 285 287 290 293 295 294 291 292 292 292
281 281 286 287 278 279 280 277 277 277 277 276 276 276 276 275 274 273 273 273 273 274 274 275 276 277 278 279 279 278 278 279 280 281 283 284 286 289 292 294 294 291 291 291
Wind_Speed
6 4 10 15 21 1 4 4 5 2 2 3 8 20 17 17 16 15 28 33 38 44 46 40 38 34 44 44 45 46 47 44 45 44 42 40 39 36 33 30 26 23 21 18
2 16 16 7 6 7 6 5 10 5 4 4 9 25 18 16 23 27 31 35 39 46 47 44 41 43 42 47 47 48 50 49 48 46 45 45 43 39 34 31 28 25 22 18
13 7 6 13 6 11 10 18 6 9 5 4 6 23 15 10 15 23 31 39 41 43 45 38 38 41 45 46 52 53 53 52 50 48 46 46 42 39 38 36 32 28 23 20
11 5 8 6 11 10 15 10 7 6 3 5 1 12 8 4 14 8 14 30 40 37 35 34 36 35 42 51 48 53 53 54 52 52 51 52 51 49 46 40 34 29 25 22
10 10 8 11 9 13 7 5 8 4 4 2 3 3 6 3 6 9 13 24 27 27 23 24 32 36 31 40 49 50 55 55 55 56 53 52 51 49 43 39 34 31 27 24
5 1 6 7 3 7 9 7 6 4 3 3 10 8 32 7 8 5 3 4 2 1 3 8 14 22 27 28 39 47 51 56 57 56 55 54 53 49 43 39 38 35 31 28
3 6 4 4 6 2 3 7 0 2 0 9 2 6 23 12 11 7 8 9 10 12 14 11 8 14 23 26 31 42 48 53 56 57 56 54 53 49 44 41 40 39 35 33
8 6 12 8 9 10 8 8 7 9 6 4 3 10 8 8 10 18 13 15 13 11 6 5 5 8 14 20 26 32 43 48 52 54 54 53 51 48 45 43 41 38 36 31
6 6 0 2 1 9 7 9 4 6 2 2 5 8 8 13 13 9 6 7 8 3 0 1 1 2 8 14 20 26 34 42 45 49 51 52 51 49 45 41 39 37 34 30
5 3 0 1 1 1 5 3 3 1 3 4 6 7 7 12 7 6 9 8 7 6 4 5 6 5 2 7 12 19 25 34 38 42 47 47 45 46 43 40 39 37 35 32
3 5 1 2 7 9 4 4 2 3 5 6 2 6 5 3 3 8 8 17 24 19 15 14 12 9 6 2 7 14 20 27 32 36 39 42 43 44 43 39 37 38 37 36
6 2 8 11 1 2 4 8 8 5 6 3 2 6 4 5 8 11 10 20 28 31 28 25 21 18 14 9 2 6 12 19 24 28 33 37 39 41 40 39 38 38 38 37
5 4 2 0 2 3 3 5 4 4 3 7 6 6 5 6 9 13 12 19 24 27 28 27 27 27 23 17 11 4 5 12 17 22 27 31 35 38 39 39 38 37 38 38
24 5 6 15 10 6 6 8 14 14 5 13 7 4 3 5 7 7 13 20 22 26 28 28 27 25 23 20 18 12 4 2 10 16 21 27 31 35 37 36 35 36 37 37
9 8 11 20 20 3 4 7 14 15 24 16 24 14 9 6 6 6 10 15 22 25 27 29 29 27 24 20 16 13 10 4 4 8 15 20 24 28 32 34 34 35 36 37
2 6 15 15 16 17 21 12 11 21 20 20 19 12 5 10 16 13 14 14 15 17 21 23 23 24 25 25 21 15 11 6 1 5 9 12 15 20 25 28 31 33 34 36
4 6 9 4 13 14 12 12 10 8 6 13 17 14 3 7 11 11 12 13 14 14 18 22 23 24 23 23 21 19 16 10 6 4 7 12 17 21 24 27 30 31 32 34
13 12 5 7 7 6 3 13 6 15 10 10 6 7 8 9 13 16 16 13 13 13 17 20 20 20 22 22 20 18 18 15 11 7 7 11 15 19 23 27 31 34 36 35
9 8 4 4 6 9 12 10 8 5 6 10 7 7 4 14 13 17 15 13 12 13 15 16 18 19 21 21 22 21 20 19 17 14 10 10 14 19 23 26 30 33 36 39
8 8 4 3 4 3 5 10 10 5 3 8 9 11 12 11 3 4 13 13 13 14 16 19 20 20 21 23 21 21 22 21 21 21 19 16 15 16 20 24 26 28 34 38
5 4 2 1 3 1 8 12 13 1 3 8 10 12 16 9 7 6 10 11 14 16 17 18 20 21 22 21 21 20 21 21 23 23 21 20 18 18 18 21 24 26 28 34
3 3 3 2 2 6 8 3 4 2 6 5 5 7 8 7 7 9 11 11 14 15 16 17 19 19 20 22 21 20 20 21 22 22 22 21 21 20 19 20 21 23 26 31
4 4 3 3 2 2 2 2 4 3 6 4 4 3 4 4 7 9 11 11 15 15 17 18 20 19 19 22 23 24 22 20 18 18 20 22 21 21 19 18 18 20 21 26
5 3 4 4 5 2 3 6 6 5 6 4 3 2 1 2 5 8 9 12 14 15 18 21 23 21 20 22 23 23 24 24 23 20 19 20 22 23 21 18 17 15 18 21
8 2 4 5 5 3 4 3 2 3 1 4 7 7 5 7 7 9 12 14 16 19 19 21 23 24 23 24 24 24 25 25 25 25 22 20 19 21 23 21 18 17 17 18
3 4 2 5 1 2 3 4 3 3 5 7 10 13 13 16 16 15 16 17 19 21 24 24 24 23 24 25 25 24 25 25 26 26 25 24 22 20 22 25 24 15 16 16
Wind_Direction
201 172 205 200 210 252 147 218 231 235 171 241 238 264 262 266 261 248 259 262 264 266 265 256 248 241 236 233 231 225 220 219 217 212 211 211 212 212 212 211 210 213 214 215
111 233 220 198 217 233 244 269 258 277 258 202 294 278 271 260 258 245 249 255 253 259 262 260 251 240 233 230 227 225 221 220 218 215 214 215 216 213 215 213 212 214 215 216
200 210 172 187 181 206 233 235 227 241 331 256 320 280 270 243 256 252 249 249 255 250 255 257 253 244 234 228 224 223 221 220 219 217 215 216 215 214 213 212 212 214 214 217
236 197 144 179 212 172 240 197 182 189 127 246 63 285 217 221 252 223 239 244 250 256 257 259 258 249 238 230 226 224 223 220 219 217 215 215 215 212 214 214 211 213 214 217
224 173 181 198 199 181 233 140 166 150 173 16 198 255 261 64 269 265 241 246 261 267 267 263 256 252 245 235 230 225 223 222 219 218 218 217 217 219 218 214 213 215 216 217
241 159 178 197 85 164 150 86 61 56 105 280 181 169 277 222 220 259 249 189 193 173 320 297 264 242 240 237 230 227 224 222 220 217 218 218 219 218 216 215 213 214 216 218
129 210 177 156 100 61 151 125 229 333 358 236 215 187 251 305 274 230 259 278 297 284 291 291 262 235 228 227 225 224 224 222 219 217 218 218 220 219 217 217 216 215 216 218
183 272 170 179 193 165 198 175 170 195 193 228 105 235 248 232 280 269 271 276 276 310 289 266 258 236 226 227 226 225 223 221 219 218 219 220 221 219 219 220 219 219 223 224
159 261 138 328 176 153 188 219 140 99 57 47 219 275 272 269 271 307 330 285 263 229 40 26 11 250 233 224 225 227 225 222 222 220 219 219 220 219 220 222 222 224 225 225
233 277 203 132 258 300 160 176 102 10 171 226 261 281 237 296 302 360 7 6 339 22 26 46 36 18 297 228 226 225 225 224 222 220 220 221 220 220 222 224 224 224 225 225
183 178 92 84 216 186 147 182 214 146 170 185 242 258 222 293 42 53 15 39 47 52 40 40 45 41 20 319 226 220 221 220 221 221 220 220 220 220 223 225 227 228 228 229
244 202 215 202 253 350 329 208 167 146 225 236 156 263 5 54 103 69 35 40 50 63 63 58 57 58 51 34 1 232 222 219 221 223 222 222 222 222 224 227 228 227 228 231
326 244 240 70 5 17 214 215 229 97 105 202 154 261 356 83 71 46 54 37 41 44 47 52 53 57 57 55 53 31 241 229 223 222 223 223 223 223 225 227 228 228 230 232
340 213 245 240 221 138 187 202 204 203 210 222 211 143 270 56 70 42 43 42 38 38 34 34 36 40 46 52 53 54 72 224 232 225 222 223 224 225 227 230 230 231 233 235
359 292 271 237 260 179 206 213 203 207 221 216 230 216 217 156 107 75 61 46 41 32 29 26 24 27 29 33 38 45 45 77 186 223 229 226 229 231 232 232 232 233 235 238
347 296 301 303 265 248 249 230 201 209 227 239 256 254 99 91 84 54 40 43 48 41 34 28 23 24 23 18 17 19 21 21 13 218 220 235 237 238 237 236 236 236 237 239
277 298 331 269 342 295 253 233 192 198 211 223 239 253 3 61 61 55 55 44 43 41 41 33 28 24 21 16 13 9 13 6 344 277 247 230 229 237 242 243 243 241 240 242
254 261 252 279 350 269 14 15 328 210 63 5 327 48 48 97 92 68 51 46 38 27 34 36 33 30 22 17 14 10 9 10 3 338 288 265 254 245 241 244 247 246 244 242
258 268 293 234 227 284 310 17 330 349 75 14 38 30 41 143 105 59 36 35 26 24 20 18 21 24 25 19 12 9 4 6 6 3 346 313 284 263 254 250 246 247 248 245
321 244 221 341 288 270 338 324 313 290 65 8 16 26 9 150 153 64 13 7 10 15 14 9 9 12 13 16 17 7 3 3 1 3 357 343 320 297 277 265 259 253 245 247
324 320 208 288 245 256 328 320 342 0 62 46 33 20 30 47 30 357 356 0 354 1 7 8 8 9 6 5 4 6 6 5 3 358 354 350 340 323 303 283 269 258 252 249
255 290 276 296 252 251 346 22 69 241 104 87 70 32 27 14 360 348 345 343 342 351 356 359 0 3 3 1 358 357 358 2 1 357 351 346 343 336 321 303 281 263 255 252
301 219 268 238 289 184 336 336 93 140 123 97 109 49 13 343 333 333 332 335 341 344 347 347 349 348 353 357 356 353 350 348 348 348 351 347 346 343 335 318 296 274 260 257
277 249 268 350 315 358 112 98 100 79 94 87 58 48 343 313 320 316 321 328 332 332 336 338 337 336 343 345 347 346 342 342 340 341 345 351 346 342 343 333 311 286 267 259
264 327 268 249 247 122 111 116 103 65 24 334 331 341 348 336 332 321 316 315 316 323 325 325 325 327 330 333 335 338 334 335 335 335 335 338 345 342 337 337 327 302 280 267
188 220 211 272 124 283 52 315 323 323 319 324 323 322 323 328 324 318 312 309 313 314 317 319 318 314 316 318 321 327 327 329 330 329 333 331 327 329 329 326 323 311 293 272